SCP
0 0 0 0 0 0 0 0 0 0 0 0 0 0 0 0 0 0 0 0 0 0 0 0 0 0 0 0 0 0 0 0 0 0 0 0 0 0 0 0 0 0 0 0
0 0 0 0 0 0 0 0 0 0 0 0 0 0 0 0 0 0 0 0 0 0 0 0 0 0 0 0 0 0 0 0 0 0 0 0 0 0 0 0 0 0 0 0
0 0 0 0 0 0 0 0 0 0 0 0 0 -0 0 0 0 0 0 0 0 0 0 0 0 0 0 0 0 0 0 0 0 0 0 0 0 0 0 0 0 0 0 0
0 0 0 0 0 0 0 0 0 0 0 0 0 -0 0 0 0 0 0 0 0 0 0 0 0 0 0 0 0 0 0 0 0 0 0 0 0 0 0 0 0 0 0 0
0 0 0 0 0 0 0 0 0 0 0 0 0 0 0 0 0 0 0 0 0 0 0 0 0 0 0 0 0 0 0 0 0 0 0 0 0 0 0 0 0 0 0 0
0 0 0 0 0 0 0 0 0 0 0 0 0 0 0 0 0 0 0 0 0 0 0 0 0 0 0 0 0 0 0 0 0 0 0 0 0 0 0 0 0 0 0 0
0 0 0 0 0 0 0 0 0 0 0 0 0 0 0 0 0 0 0 0 0 0 0 0 0 0 0 0 0 0 0 0 0 0 0 0 0 0 0 0 0 0 0 0
0 0 0 0 0 0 0 0 0 0 0 -0 0 0 0 0 0 0 0 0 0 0 0 0 0 0 0 0 0 0 0 0 0 0 0 0 0 0 0 0 0 0 0 0
0 0 0 0 0 0 0 0 0 0 0 0 0 0 0 0 0 0 0 0 0 0 0 0 0 0 0 0 0 0 0 0 0 0 0 0 0 0 0 0 0 0 0 0
0 0 0 0 0 0 0 0 0 0 0 0 0 0 0 0 0 0 0 0 0 0 0 0 0 0 0 0 0 0 0 0 0 0 0 0 0 0 0 0 0 0 0 0
0 0 0 0 0 0 0 0 0 0 0 0 0 0 0 0 0 0 0 0 0 0 0 0 0 0 0 0 0 0 0 0 0 0 0 0 0 0 0 0 0 0 0 0
0 0 0 0 0 0 0 0 0 0 0 0 0 0 0 0 0 0 0 0 0 0 0 0 0 0 0 0 0 0 0 0 0 0 0 0 0 0 0 0 0 0 0 0
0 0 0 0 0 0 0 0 0 0 0 0 0 0 0 0 0 0 0 0 0 0 0 0 0 0 0 0 0 0 0 0 0 0 0 0 0 0 0 0 0 0 0 0
0 0 0 0 0 0 0 0 0 0 0 0 0 0 0 0 0 0 0 0 0 0 0 0 0 0 0 0 0 0 0 0 0 0 0 0 0 0 0 0 0 0 0 0
0 0 0 0 0 0 0 0 0 0 0 0 0 0 0 0 0 0 0 0 0 0 0 0 0 0 0 0 0 0 0 0 0 0 0 0 0 0 0 0 0 0 0 0
0 0 0 0 0 0 0 0 0 0 0 0 0 0 0 0 0 0 0 0 0 0 0 0 0 0 0 0 0 0 0 0 0 0 0 0 0 0 0 0 0 0 0 0
0 0 0 0 0 0 0 0 0 0 0 0 0 0 0 0 0 0 0 0 0 0 0 0 0 0 0 0 0 0 0 0 0 0 0 0 0 0 0 0 0 0 0 0
0 0 0 0 0 0 0 0 0 0 0 0 0 0 0 0 0 0 0 0 0 0 0 0 0 0 0 0 0 0 0 0 0 0 0 0 0 0 0 0 0 0 0 0
0 0 0 0 0 0 0 0 0 0 0 0 0 0 0 0 0 0 0 0 0 0 0 0 0 0 0 0 0 0 0 0 0 0 0 0 0 0 0 0 0 0 0 0
0 0 0 0 0 0 0 0 0 0 0 0 0 0 0 0 0 0 0 0 0 0 0 0 0 0 0 0 0 0 0 0 0 0 0 0 0 0 0 0 0 0 0 0
0 0 0 0 0 0 0 0 0 0 0 0 0 0 0 0 0 0 0 0 0 0 0 0 0 0 0 0 0 0 0 0 0 0 0 0 0 0 0 0 0 0 0 0
0 0 0 0 0 0 0 0 0 0 0 0 0 0 0 0 0 0 0 0 0 0 0 0 0 0 0 0 0 0 0 0 0 0 0 0 0 0 0 0 0 0 0 0
0 0 0 0 0 0 0 0 0 0 0 0 0 0 0 0 0 0 0 0 0 0 0 0 0 0 0 0 0 0 0 0 0 0 0 0 0 0 0 0 0 0 0 0
0 0 0 0 0 0 0 0 0 0 0 0 0 0 0 0 0 0 0 0 0 0 0 0 0 0 0 0 0 0 0 0 0 0 0 0 0 0 0 0 0 0 0 0
0 0 0 0 0 0 0 0 0 0 0 0 0 0 0 0 0 0 0 0 0 0 0 0 0 0 0 0 0 0 0 0 0 0 0 0 0 0 0 0 0 0 0 0
0 0 0 0 0 0 -0 -0 -0 -0 -0 0 0 0 0 0 0 0 0 0 0 0 0 0 0 0 0 0 0 0 0 0 0 0 0 0 0 0 0 0 0 0 0 0
Wind_Speed_500mb
5 13 32 34 34 27 14 15 33 31 7 11 35 39 49 62 56 69 71 62 57 62 58 65 75 79 83 81 77 72 69 62 54 49 45 43 39 33 28 25 25 28 34 39
8 30 37 2 12 18 18 26 40 27 5 14 27 43 46 45 61 71 73 72 53 49 45 56 71 81 89 87 83 78 74 67 59 56 52 50 45 39 34 28 25 30 35 40
33 24 6 17 16 21 23 35 29 22 10 13 21 33 15 14 37 50 67 66 46 46 46 50 63 78 88 93 91 86 78 72 66 62 56 54 50 44 35 30 31 33 35 40
20 13 21 15 22 27 27 20 22 16 10 24 6 39 27 21 21 23 62 42 37 44 44 46 51 66 83 94 91 87 81 75 70 65 60 57 51 43 39 35 33 33 37 39
12 11 15 20 18 23 11 5 10 6 15 12 24 20 20 3 13 35 34 42 38 42 42 42 47 52 60 77 90 87 83 79 75 69 62 57 53 46 43 37 34 37 38 40
15 3 9 6 6 1 16 6 3 3 6 19 36 30 11 9 14 18 25 28 28 30 34 34 39 40 49 61 81 89 88 85 80 73 65 60 54 48 44 37 37 39 42 42
9 20 7 8 8 5 10 8 12 14 12 27 5 16 35 25 22 26 33 27 21 25 32 33 39 42 46 56 68 89 94 91 85 76 67 61 54 47 42 39 40 45 44 45
12 26 26 22 33 11 22 15 12 24 30 46 15 23 27 21 37 50 25 37 24 28 33 40 40 41 46 51 61 82 97 94 87 77 71 63 54 46 43 42 45 44 47 50
18 28 5 3 4 10 17 16 5 9 4 18 24 48 15 13 24 18 37 32 47 49 45 45 43 43 46 48 57 72 93 97 90 82 73 63 54 48 44 45 44 44 48 51
5 21 7 6 2 1 9 13 8 7 13 37 52 60 34 22 30 18 21 37 49 45 43 47 47 45 49 50 56 67 88 99 92 83 74 65 56 49 45 43 43 45 48 55
8 13 8 10 24 31 12 12 10 5 12 20 40 30 8 12 11 21 27 44 34 41 45 58 51 50 55 54 60 69 83 98 98 88 77 67 57 50 43 40 41 46 51 57
17 8 24 46 5 6 18 32 37 19 20 20 26 62 8 13 9 12 20 32 31 28 37 52 53 56 63 65 67 75 83 99 99 89 78 67 58 48 41 40 42 47 52 56
19 10 14 26 11 4 16 19 24 35 32 62 26 56 19 23 7 17 23 41 43 42 61 62 59 66 75 73 73 78 86 99 100 89 77 66 55 46 41 41 41 46 51 56
31 10 26 41 43 2 12 27 38 47 37 46 51 65 81 61 47 47 61 51 62 73 72 73 79 85 80 75 75 80 87 99 99 88 76 63 53 45 40 39 38 42 48 56
14 28 30 43 55 46 47 36 38 57 59 50 63 51 70 63 49 54 70 62 73 73 68 81 86 92 80 75 78 85 91 100 97 85 73 60 51 43 38 37 37 39 46 52
10 36 37 52 60 61 63 45 63 59 65 48 49 57 63 75 93 76 106 76 84 86 84 84 92 88 79 82 87 88 92 101 96 82 67 57 46 39 36 35 35 38 44 49
19 16 19 42 48 41 29 68 64 80 70 57 60 71 66 68 64 65 96 76 77 88 94 78 87 87 83 84 85 89 92 102 93 77 65 54 44 39 34 34 33 37 43 47
25 39 22 18 12 26 42 41 57 70 70 65 63 74 73 69 91 96 86 76 86 87 93 83 84 76 72 72 75 79 88 98 88 77 62 52 42 36 33 29 31 33 42 48
47 38 19 15 29 23 14 35 43 41 62 55 66 68 73 101 41 80 76 82 92 93 87 83 78 56 59 67 75 79 83 94 84 74 61 50 40 34 29 26 28 35 43 47
50 47 34 21 21 35 41 59 40 13 15 61 54 54 56 47 19 40 95 55 69 68 68 63 57 53 57 70 72 73 94 94 81 68 55 45 36 29 23 22 27 35 43 47
16 26 48 47 45 25 21 14 12 27 39 58 72 59 44 41 49 82 70 40 38 43 49 46 46 54 59 64 66 81 98 90 75 62 49 40 32 24 17 20 27 35 40 46
42 22 22 28 31 46 35 51 47 57 70 64 59 49 39 58 73 72 78 79 62 55 56 54 53 61 63 64 74 91 88 78 68 57 46 36 28 19 13 15 25 34 39 44
41 46 45 39 27 28 43 55 95 102 75 70 55 67 48 57 65 70 75 74 71 68 62 59 62 63 65 74 85 93 88 75 62 50 40 33 24 16 11 11 19 28 35 42
20 32 29 45 47 34 31 50 68 71 74 82 82 74 54 53 58 63 64 73 79 79 71 64 64 68 79 92 93 90 80 67 56 46 36 28 22 15 9 11 18 24 28 34
19 8 11 14 27 35 47 47 51 64 79 82 93 81 82 66 75 84 79 85 86 88 80 73 73 79 90 99 97 89 78 67 54 44 36 31 24 15 9 9 12 18 25 29
40 46 36 41 50 45 49 67 64 56 70 69 69 82 92 90 92 84 92 92 92 94 90 84 82 87 101 103 97 87 76 64 54 46 40 32 24 16 8 4 9 14 18 23
Wind_Direction_500mb
161 225 240 245 229 267 267 260 262 269 204 239 252 256 267 276 273 261 267 262 251 241 248 233 229 226 226 225 225 225 226 227 226 229 232 235 238 242 251 263 283 301 304 305
180 239 251 251 223 226 234 261 265 281 238 216 271 270 271 265 264 268 270 268 258 247 235 227 227 226 228 229 226 225 226 227 229 232 234 235 235 238 246 259 280 288 296 306
230 259 103 195 209 206 229 235 255 262 319 232 290 273 239 259 253 269 264 260 253 239 232 223 225 227 228 228 227 227 227 230 231 233 234 235 236 239 249 260 272 285 300 300
242 253 223 204 229 205 240 230 244 259 289 277 5 290 281 260 251 256 271 260 245 244 235 228 228 227 228 230 229 228 228 230 232 234 234 235 236 241 249 259 275 289 295 303
231 188 196 213 232 179 247 120 180 206 250 312 254 268 278 139 248 260 259 268 243 232 232 232 236 236 235 231 231 229 229 229 231 234 235 236 239 244 253 263 277 285 296 303
256 148 221 213 75 145 134 117 154 157 251 255 256 228 273 206 211 251 264 251 233 217 214 224 234 230 230 231 232 228 228 229 231 232 233 236 239 246 256 269 278 291 294 299
207 223 175 176 149 127 197 178 280 259 231 265 163 237 264 279 236 233 253 262 226 213 210 222 232 227 226 229 230 227 227 227 229 230 232 234 239 248 259 270 284 288 296 303
222 255 184 184 218 216 185 219 206 266 280 288 112 252 276 226 248 250 262 261 247 231 240 240 232 230 228 234 234 230 228 227 228 227 231 234 240 249 261 272 280 291 299 307
201 254 100 228 141 179 162 196 230 282 115 284 257 261 236 189 247 244 252 249 249 248 250 242 235 235 231 238 239 238 228 226 228 228 230 234 240 248 260 271 283 294 301 302
258 261 111 114 146 31 221 139 141 194 266 263 276 283 276 236 242 214 239 237 246 247 238 238 236 242 238 243 244 240 230 228 228 228 230 235 241 249 258 272 287 294 296 298
197 210 212 150 202 193 168 207 228 310 233 259 271 274 115 161 170 202 224 232 246 250 248 239 236 243 241 243 241 240 230 225 225 225 228 234 240 248 260 274 284 289 295 302
207 203 232 236 143 295 250 234 217 224 225 234 257 271 87 78 154 188 213 248 257 247 266 241 238 240 243 245 240 235 227 224 224 224 227 231 238 248 261 272 281 290 298 305
171 212 240 254 220 201 214 213 227 239 255 250 234 257 208 278 265 234 255 257 259 262 269 257 244 245 255 253 238 231 227 222 222 221 224 229 237 246 257 269 282 293 303 307
175 166 221 237 249 99 197 225 220 222 233 253 240 258 276 272 275 281 276 270 272 268 260 255 254 256 254 242 237 229 224 220 219 219 221 227 234 243 256 269 282 296 303 307
171 231 243 253 262 271 279 273 246 236 239 243 256 262 264 279 277 276 280 279 277 272 260 260 261 258 249 240 234 231 227 219 216 216 219 224 231 242 256 271 286 296 302 306
192 242 240 245 254 259 260 255 256 258 254 254 259 267 268 270 280 281 275 271 273 273 266 261 266 263 252 245 239 231 225 216 214 213 216 221 231 243 257 273 285 293 302 307
201 212 210 240 235 244 248 240 248 256 262 258 259 254 270 271 267 265 272 280 269 267 267 266 263 265 262 251 239 230 223 214 210 210 214 219 228 241 256 271 282 296 305 311
231 217 218 246 220 227 237 231 231 242 252 255 254 257 261 260 265 275 275 272 270 270 273 272 269 266 254 242 232 224 220 209 206 206 210 218 227 240 256 269 286 303 310 314
222 231 235 226 220 245 176 227 221 223 244 244 243 250 253 260 277 276 271 265 263 270 274 274 275 262 245 231 223 220 210 204 203 205 206 213 223 240 255 272 294 305 311 316
222 223 226 219 231 232 227 239 240 89 251 249 241 248 256 271 262 266 279 271 266 268 267 268 264 240 228 219 215 210 201 198 199 202 204 210 220 233 253 281 303 311 315 320
192 213 223 230 242 244 223 217 127 192 238 244 247 246 249 248 238 249 275 268 258 256 254 259 250 237 223 215 207 201 197 195 195 198 202 210 219 222 253 291 308 313 317 322
223 203 212 230 243 247 224 228 221 240 244 243 256 258 231 246 255 252 251 261 263 256 252 242 233 223 216 207 201 193 193 193 191 193 199 208 218 228 246 292 310 315 320 323
234 224 231 216 231 229 217 224 231 241 251 255 255 255 254 253 254 263 258 258 260 255 243 231 225 217 208 198 195 190 189 190 189 192 198 202 209 226 254 296 309 314 323 324
325 302 272 266 252 272 248 242 244 250 247 254 259 269 264 251 257 261 266 266 257 250 241 229 218 208 197 191 188 191 187 188 187 191 195 201 208 212 249 296 310 320 326 327
272 329 300 294 289 295 293 287 285 293 289 284 278 273 271 263 264 267 266 268 261 248 237 228 214 203 196 190 186 186 186 185 189 192 193 197 204 204 232 283 314 327 327 338
273 275 277 276 284 287 282 289 286 294 290 290 293 291 286 281 274 273 270 267 261 251 235 222 212 203 193 188 184 182 182 186 188 190 190 192 194 194 203 256 321 331 335 334
Wind_Speed_850mb
5 13 32 34 34 27 14 15 33 31 7 11 35 39 49 62 56 69 71 62 57 62 58 65 75 79 83 81 77 72 69 62 54 49 45 43 39 33 28 25 25 28 34 39
8 30 37 2 12 18 18 26 40 27 5 14 27 43 46 45 61 71 73 72 53 49 45 56 71 81 89 87 83 78 74 67 59 56 52 50 45 39 34 28 25 30 35 40
33 24 6 17 16 21 23 35 29 22 10 13 21 33 15 14 37 50 67 66 46 46 46 50 63 78 88 93 91 86 78 72 66 62 56 54 50 44 35 30 31 33 35 40
20 13 21 15 22 27 27 20 22 16 10 24 6 39 27 21 21 23 62 42 37 44 44 46 51 66 83 94 91 87 81 75 70 65 60 57 51 43 39 35 33 33 37 39
12 11 15 20 18 23 11 5 10 6 15 12 24 20 20 3 13 35 34 42 38 42 42 42 47 52 60 77 90 87 83 79 75 69 62 57 53 46 43 37 34 37 38 40
15 3 9 6 6 1 16 6 3 3 6 19 36 30 11 9 14 18 25 28 28 30 34 34 39 40 49 61 81 89 88 85 80 73 65 60 54 48 44 37 37 39 42 42
9 20 7 8 8 5 10 8 12 14 12 27 5 16 35 25 22 26 33 27 21 25 32 33 39 42 46 56 68 89 94 91 85 76 67 61 54 47 42 39 40 45 44 45
12 26 26 22 33 11 22 15 12 24 30 46 15 23 27 21 37 50 25 37 24 28 33 40 40 41 46 51 61 82 97 94 87 77 71 63 54 46 43 42 45 44 47 50
18 28 5 3 4 10 17 16 5 9 4 18 24 48 15 13 24 18 37 32 47 49 45 45 43 43 46 48 57 72 93 97 90 82 73 63 54 48 44 45 44 44 48 51
5 21 7 6 2 1 9 13 8 7 13 37 52 60 34 22 30 18 21 37 49 45 43 47 47 45 49 50 56 67 88 99 92 83 74 65 56 49 45 43 43 45 48 55
8 13 8 10 24 31 12 12 10 5 12 20 40 30 8 12 11 21 27 44 34 41 45 58 51 50 55 54 60 69 83 98 98 88 77 67 57 50 43 40 41 46 51 57
17 8 24 46 5 6 18 32 37 19 20 20 26 62 8 13 9 12 20 32 31 28 37 52 53 56 63 65 67 75 83 99 99 89 78 67 58 48 41 40 42 47 52 56
19 10 14 26 11 4 16 19 24 35 32 62 26 56 19 23 7 17 23 41 43 42 61 62 59 66 75 73 73 78 86 99 100 89 77 66 55 46 41 41 41 46 51 56
31 10 26 41 43 2 12 27 38 47 37 46 51 65 81 61 47 47 61 51 62 73 72 73 79 85 80 75 75 80 87 99 99 88 76 63 53 45 40 39 38 42 48 56
14 28 30 43 55 46 47 36 38 57 59 50 63 51 70 63 49 54 70 62 73 73 68 81 86 92 80 75 78 85 91 100 97 85 73 60 51 43 38 37 37 39 46 52
10 36 37 52 60 61 63 45 63 59 65 48 49 57 63 75 93 76 106 76 84 86 84 84 92 88 79 82 87 88 92 101 96 82 67 57 46 39 36 35 35 38 44 49
19 16 19 42 48 41 29 68 64 80 70 57 60 71 66 68 64 65 96 76 77 88 94 78 87 87 83 84 85 89 92 102 93 77 65 54 44 39 34 34 33 37 43 47
25 39 22 18 12 26 42 41 57 70 70 65 63 74 73 69 91 96 86 76 86 87 93 83 84 76 72 72 75 79 88 98 88 77 62 52 42 36 33 29 31 33 42 48
47 38 19 15 29 23 14 35 43 41 62 55 66 68 73 101 41 80 76 82 92 93 87 83 78 56 59 67 75 79 83 94 84 74 61 50 40 34 29 26 28 35 43 47
50 47 34 21 21 35 41 59 40 13 15 61 54 54 56 47 19 40 95 55 69 68 68 63 57 53 57 70 72 73 94 94 81 68 55 45 36 29 23 22 27 35 43 47
16 26 48 47 45 25 21 14 12 27 39 58 72 59 44 41 49 82 70 40 38 43 49 46 46 54 59 64 66 81 98 90 75 62 49 40 32 24 17 20 27 35 40 46
42 22 22 28 31 46 35 51 47 57 70 64 59 49 39 58 73 72 78 79 62 55 56 54 53 61 63 64 74 91 88 78 68 57 46 36 28 19 13 15 25 34 39 44
41 46 45 39 27 28 43 55 95 102 75 70 55 67 48 57 65 70 75 74 71 68 62 59 62 63 65 74 85 93 88 75 62 50 40 33 24 16 11 11 19 28 35 42
20 32 29 45 47 34 31 50 68 71 74 82 82 74 54 53 58 63 64 73 79 79 71 64 64 68 79 92 93 90 80 67 56 46 36 28 22 15 9 11 18 24 28 34
19 8 11 14 27 35 47 47 51 64 79 82 93 81 82 66 75 84 79 85 86 88 80 73 73 79 90 99 97 89 78 67 54 44 36 31 24 15 9 9 12 18 25 29
40 46 36 41 50 45 49 67 64 56 70 69 69 82 92 90 92 84 92 92 92 94 90 84 82 87 101 103 97 87 76 64 54 46 40 32 24 16 8 4 9 14 18 23
Wind_Direction_850mb
161 225 240 245 229 267 267 260 262 269 204 239 252 256 267 276 273 261 267 262 251 241 248 233 229 226 226 225 225 225 226 227 226 229 232 235 238 242 251 263 283 301 304 305
180 239 251 251 223 226 234 261 265 281 238 216 271 270 271 265 264 268 270 268 258 247 235 227 227 226 228 229 226 225 226 227 229 232 234 235 235 238 246 259 280 288 296 306
230 259 103 195 209 206 229 235 255 262 319 232 290 273 239 259 253 269 264 260 253 239 232 223 225 227 228 228 227 227 227 230 231 233 234 235 236 239 249 260 272 285 300 300
242 253 223 204 229 205 240 230 244 259 289 277 5 290 281 260 251 256 271 260 245 244 235 228 228 227 228 230 229 228 228 230 232 234 234 235 236 241 249 259 275 289 295 303
231 188 196 213 232 179 247 120 180 206 250 312 254 268 278 139 248 260 259 268 243 232 232 232 236 236 235 231 231 229 229 229 231 234 235 236 239 244 253 263 277 285 296 303
256 148 221 213 75 145 134 117 154 157 251 255 256 228 273 206 211 251 264 251 233 217 214 224 234 230 230 231 232 228 228 229 231 232 233 236 239 246 256 269 278 291 294 299
207 223 175 176 149 127 197 178 280 259 231 265 163 237 264 279 236 233 253 262 226 213 210 222 232 227 226 229 230 227 227 227 229 230 232 234 239 248 259 270 284 288 296 303
222 255 184 184 218 216 185 219 206 266 280 288 112 252 276 226 248 250 262 261 247 231 240 240 232 230 228 234 234 230 228 227 228 227 231 234 240 249 261 272 280 291 299 307
201 254 100 228 141 179 162 196 230 282 115 284 257 261 236 189 247 244 252 249 249 248 250 242 235 235 231 238 239 238 228 226 228 228 230 234 240 248 260 271 283 294 301 302
258 261 111 114 146 31 221 139 141 194 266 263 276 283 276 236 242 214 239 237 246 247 238 238 236 242 238 243 244 240 230 228 228 228 230 235 241 249 258 272 287 294 296 298
197 210 212 150 202 193 168 207 228 310 233 259 271 274 115 161 170 202 224 232 246 250 248 239 236 243 241 243 241 240 230 225 225 225 228 234 240 248 260 274 284 289 295 302
207 203 232 236 143 295 250 234 217 224 225 234 257 271 87 78 154 188 213 248 257 247 266 241 238 240 243 245 240 235 227 224 224 224 227 231 238 248 261 272 281 290 298 305
171 212 240 254 220 201 214 213 227 239 255 250 234 257 208 278 265 234 255 257 259 262 269 257 244 245 255 253 238 231 227 222 222 221 224 229 237 246 257 269 282 293 303 307
175 166 221 237 249 99 197 225 220 222 233 253 240 258 276 272 275 281 276 270 272 268 260 255 254 256 254 242 237 229 224 220 219 219 221 227 234 243 256 269 282 296 303 307
171 231 243 253 262 271 279 273 246 236 239 243 256 262 264 279 277 276 280 279 277 272 260 260 261 258 249 240 234 231 227 219 216 216 219 224 231 242 256 271 286 296 302 306
192 242 240 245 254 259 260 255 256 258 254 254 259 267 268 270 280 281 275 271 273 273 266 261 266 263 252 245 239 231 225 216 214 213 216 221 231 243 257 273 285 293 302 307
201 212 210 240 235 244 248 240 248 256 262 258 259 254 270 271 267 265 272 280 269 267 267 266 263 265 262 251 239 230 223 214 210 210 214 219 228 241 256 271 282 296 305 311
231 217 218 246 220 227 237 231 231 242 252 255 254 257 261 260 265 275 275 272 270 270 273 272 269 266 254 242 232 224 220 209 206 206 210 218 227 240 256 269 286 303 310 314
222 231 235 226 220 245 176 227 221 223 244 244 243 250 253 260 277 276 271 265 263 270 274 274 275 262 245 231 223 220 210 204 203 205 206 213 223 240 255 272 294 305 311 316
222 223 226 219 231 232 227 239 240 89 251 249 241 248 256 271 262 266 279 271 266 268 267 268 264 240 228 219 215 210 201 198 199 202 204 210 220 233 253 281 303 311 315 320
192 213 223 230 242 244 223 217 127 192 238 244 247 246 249 248 238 249 275 268 258 256 254 259 250 237 223 215 207 201 197 195 195 198 202 210 219 222 253 291 308 313 317 322
223 203 212 230 243 247 224 228 221 240 244 243 256 258 231 246 255 252 251 261 263 256 252 242 233 223 216 207 201 193 193 193 191 193 199 208 218 228 246 292 310 315 320 323
234 224 231 216 231 229 217 224 231 241 251 255 255 255 254 253 254 263 258 258 260 255 243 231 225 217 208 198 195 190 189 190 189 192 198 202 209 226 254 296 309 314 323 324
325 302 272 266 252 272 248 242 244 250 247 254 259 269 264 251 257 261 266 266 257 250 241 229 218 208 197 191 188 191 187 188 187 191 195 201 208 212 249 296 310 320 326 327
272 329 300 294 289 295 293 287 285 293 289 284 278 273 271 263 264 267 266 268 261 248 237 228 214 203 196 190 186 186 186 185 189 192 193 197 204 204 232 283 314 327 327 338
273 275 277 276 284 287 282 289 286 294 290 290 293 291 286 281 274 273 270 267 261 251 235 222 212 203 193 188 184 182 182 186 188 190 190 192 194 194 203 256 321 331 335 334